Overview Statistics Trail Chart Weather Telemetry Raw packets
 

This is the latest recevied weather packets stored in our database for station/object WW6Q. If no packets are shown the sender has not sent any weather packets the latest 10 day(s).

<< 11 12 13 14 15 16 17 >>
Time Temp. Humidity Pressure Rain* Wind** Luminosity Snow
1788550664 27.78° C 80% 1013 hPa 0 mm - 1454 W/m² -
1788550359 27.22° C 80% 1013.2 hPa 0 mm - 1274 W/m² -
1788550054 27.22° C 80% 1013.1 hPa 0 mm - 953 W/m² -
1788549750 27.22° C 78% 1013.1 hPa 0 mm - 1052 W/m² -
1788549446 26.67° C 81% 1013 hPa 0 mm - 1371 W/m² -
1788549142 26.11° C 84% 1013.1 hPa 0 mm - 1330 W/m² -
1788548838 25.56° C 84% 1013.5 hPa 0 mm - 718 W/m² -
1788548534 25.56° C 86% 1013.4 hPa 0 mm - 790 W/m² -
1788548231 24.44° C 89% 1012.9 hPa 0 mm - 597 W/m² -
1788547925 23.89° C 91% 1013.2 hPa 0 mm - 566 W/m² -
1788547623 22.78° C 90% 1013.6 hPa 0 mm - 584 W/m² -
1788547320 22.22° C 91% 1013.6 hPa 0 mm - 277 W/m² -
1788547016 21.67° C 90% 1013.7 hPa 0 mm - 57 W/m² -
1788546715 21.67° C 89% 1014.3 hPa 0 mm - 52 W/m² -
1788546411 22.22° C 88% 1014.6 hPa 0 mm - 41 W/m² -
1788546106 22.22° C 87% 1015.1 hPa 0 mm - 33 W/m² -
1788545802 22.22° C 88% 1015.1 hPa 1.27 mm - 33 W/m² -
1788545501 22.78° C 88% 1015.4 hPa 1.27 mm - 39 W/m² -
1788545197 23.33° C 86% 1016.1 hPa 0 mm - 58 W/m² -
1788544892 23.33° C 89% 1016.3 hPa 3.05 mm - 70 W/m² -
1788544591 23.89° C 88% 1016.8 hPa 12.7 mm - 86 W/m² -
1788544290 25.56° C 83% 1017.8 hPa 10.67 mm - 83 W/m² -
1788543990 26.11° C 76% 1018.4 hPa 0 mm - 57 W/m² -
1788543686 26.11° C 76% 1017.5 hPa 0 mm - 56 W/m² -
1788543381 26.67° C 73% 1016.5 hPa 0 mm - 292 W/m² -

* Rain latest hour (hover to see other rain measurements)
** Current wind speed in m/s (hover to see current wind gust speed)